Krumpe's Donut Alley Rally 5K — Results

Hagerstown, Maryland, United States

1st Place

Will Merritt

Krumpe's Donut Alley Rally 5K

14:54

2nd Place

Darren Harman

Krumpe's Donut Alley Rally 5K

15:01

3rd Place

Ari Snyder

Krumpe's Donut Alley Rally 5K

15:12

# Bib Name Gender Gender Rank Age Group AG Rank Finish Time Pace
301 376 NATARAJ bhat Male M4049 20 30:21 9:46 /mi
302 143 Kenny Gartner Male M3039 33 30:32 9:50 /mi
303 404 Kyra Hadley Female F4049 20 30:34 9:50 /mi
304 821 Dan Michaels Male M5059 34 30:38 9:51 /mi
305 758 Ryan Pfirrmann-Powell Male M4049 21 30:40 9:52 /mi
306 829 Scott Nipps Male M4049 22 30:42 9:53 /mi
307 278 Laurie Luck Female F5059 9 30:43 9:53 /mi
308 237 Hugh McElroy Male M5059 35 30:47 9:55 /mi
309 529 Corrina Ricker Female F2029 21 30:52 9:56 /mi
310 266 Charles Shoop Male M6069 15 30:55 9:57 /mi
311 751 Julia Lyons Female F2029 22 31:02 9:59 /mi
312 460 Elizabeth Clark Female F4049 21 31:05 10:00 /mi
313 158 Janet Just Female F5059 10 31:10 10:02 /mi
314 244 Taylor Guyer Female F3039 20 31:11 10:02 /mi
315 432 Lisa Morgan Female F5059 11 31:14 10:03 /mi
316 528 Monica Ricker Female F2029 23 31:17 10:04 /mi
317 155 Adam Hollenberg Male M3039 34 31:23 10:06 /mi
318 288 John Lustrea Male M3039 35 31:24 10:06 /mi
319 530 Robbie Porter Male M3039 36 31:24 10:06 /mi
320 315 Heather Andrew Female F3039 21 31:25 10:07 /mi
321 324 Ben Walkup Male M3039 37 31:28 10:08 /mi
322 230 Zach Lapole Male M2029 36 31:33 10:09 /mi
323 496 Jessica Vega Male M1315 15 31:34 10:09 /mi
324 128 Tim Sanders Male 31:34 10:09 /mi
325 536 Melisha Souders Female F4049 22 31:36 10:10 /mi
326 350 Jennifer Yost Female F5059 12 31:39 10:11 /mi
327 566 Bernard Oberg Male M5059 36 31:39 10:11 /mi
328 394 Laura Mirfin Female F4049 23 31:39 10:11 /mi
329 633 Ciri Kline Male M1315 16 31:42 10:12 /mi
330 728 Mia Parker Female F1619 8 31:43 10:13 /mi
331 317 Sean Liu Male M2029 37 31:46 10:13 /mi
332 608 Tristan Wilson Male M1315 17 31:54 10:16 /mi
333 267 Chelsye Dunlap Female F3039 22 31:57 10:17 /mi
334 209 Julianna Bender Female F3039 23 31:58 10:17 /mi
335 238 Jeannie Hackl Female F4049 24 31:59 10:18 /mi
336 165 Ed Binkley Male M5059 37 32:02 10:19 /mi
337 231 Rebecca Lapole Female F2029 24 32:02 10:19 /mi
338 619 Jomar Tussing Female F5059 13 32:04 10:19 /mi
339 126 Stacy Sanders Female F4049 25 32:05 10:19 /mi
340 201 Joanna Shapiro Female F5059 14 32:07 10:20 /mi
341 607 Derek Wilson Male M5059 38 32:08 10:21 /mi
342 228 Hannah Trumpower Female F3039 24 32:14 10:22 /mi
343 596 Andre Redden Male M3039 38 32:17 10:23 /mi
344 485 Cadence Ferguson Female F1619 9 32:34 10:29 /mi
345 670 Evan Thomas Male M1315 18 32:34 10:29 /mi
346 823 L. Krumpe Female 32:36 10:30 /mi
347 641 Christopher Redmond Male M3039 39 32:37 10:30 /mi
348 805 C. Wesley Female 32:37 10:30 /mi
349 472 Kayla Rishell Female F3039 25 32:38 10:30 /mi
350 377 Vibhas Bhat Male M1315 19 32:39 10:30 /mi

Showing 301–350 of 680 results